Regional Weather Roundup
Issued by NWS

Home | Current Version | Previous Version | Text Only | Print | Product List | Glossary Off
Versions: 1 2 3 4 5 6 7 8 9 10 11 12 13 14 15 16 17 18 19 20 21 22 23 24 25 26 27 28 29 30 31 32 33 34 35 36 37 38 39 40 41 42 43 44 45 46 47 48 49 50

000
ASUS45 KPSR 261600
RWRAZ

PRELIMINARY ARIZONA REGIONAL HOURLY WEATHER ROUNDUP
NATIONAL WEATHER SERVICE PHOENIX AZ
900 AM MST THU FEB 26 2015

NOTE: FAIR INDICATES FEW OR NO CLOUDS BELOW 12,000 FEET WITH NO
SIGNIFICANT WEATHER AND/OR OBSTRUCTIONS TO VISIBILITY.

AZZ001>003-036-261700-
NORTHWEST ARIZONA

CITY           SKY/WX    TMP DP  RH WIND       PRES   REMARKS
KINGMAN        PTSUNNY   50  30  46 SW5       29.94R
$$

AZZ004>008-015-016-018-261700-
NORTH CENTRAL ARIZONA

CITY           SKY/WX    TMP DP  RH WIND       PRES   REMARKS
GRAND CANYON   CLOUDY    33  26  75 E3        30.01S
PRESCOTT       PTSUNNY   42  26  53 N3        30.00R
FLAGSTAFF      NOT AVBL
PAGE           CLOUDY    42  26  53 CALM      29.98R
$$

AZZ009>014-017-261700-
NORTHEAST ARIZONA

CITY           SKY/WX    TMP DP  RH WIND       PRES   REMARKS
WINSLOW        NOT AVBL
SAINT JOHNS    PTSUNNY   41  28  60 S5        30.01S
WINDOW ROCK    CLOUDY    29  24  82 CALM      30.02S
$$

AZZ023-261700-
GREATER PHOENIX AREA

CITY           SKY/WX    TMP DP  RH WIND       PRES   REMARKS
PHOENIX        MOSUNNY   57  36  45 E9        29.93R
GLENDALE       MOSUNNY   55  37  50 N3        29.95R
DEER VALLEY    SUNNY     58  34  40 NE3       29.93R
SCOTTSDALE     SUNNY     58  35  42 CALM      29.95R
MESA-GATEWAY   MOSUNNY   52  34  50 SE5       29.96R
CHANDLER       MOSUNNY   52  37  58 CALM      29.95R
$$

AZZ027-028-261700-
SOUTHWEST MARICOPA COUNTY AND PINAL COUNTY

CITY           SKY/WX    TMP DP  RH WIND       PRES   REMARKS
CASA GRANDE    SUNNY     52  32  46 E6        29.95R
$$

AZZ503-504-507>509-261700-
SOUTHEAST ARIZONA

CITY           SKY/WX    TMP DP  RH WIND       PRES   REMARKS
TUCSON         SUNNY     52  30  43 SE12      29.98F
RYAN FIELD       N/A     57  43  58 E8        29.97F
NOGALES        SUNNY     49  27  42 CALM      29.99F
SAFFORD        SUNNY     50  29  44 E13       30.00S
$$

AZZ020-021-025-026-031-261700-
SOUTHWEST ARIZONA

CITY           SKY/WX    TMP DP  RH WIND       PRES   REMARKS
YUMA           MOSUNNY   59  35  40 E3        29.89S
$$

CAZ031-033-041-043-047-048-061-261700-
SOUTHERN CALIFORNIA

CITY           SKY/WX    TMP DP  RH WIND       PRES   REMARKS
DOWNTOWN L.A.  SUNNY     56  46  69 CALM      29.96R
L.A. AIRPORT   MOSUNNY   55  49  80 SE5       29.96S
SAN DIEGO      CLOUDY    56  45  66 CALM      30.00R
BURBANK        SUNNY     52  38  58 CALM      29.96R
ONTARIO        MOSUNNY   51  42  71 CALM      29.96R
RIVERSIDE      SUNNY     50  43  77 CALM      29.96S
PALM SPRINGS   SUNNY     61  36  39 SW3       29.89R
EL CENTRO NAS  MOSUNNY   55  34  45 W8        29.88R
IMPERIAL       SUNNY     57  34  41 CALM      29.88R
BLYTHE         SUNNY     54  30  40 CALM      29.89R
$$

NVZ020-UTZ003-261700-
SOUTHERN NEVADA-UTAH

CITY           SKY/WX    TMP DP  RH WIND       PRES   REMARKS
LAS VEGAS      NOT AVBL
SALT LAKE CITY CLOUDY    39  26  59 SW5       29.98R
$$

NMZ009-TXZ055-261700-
NEW MEXICO-WEST TEXAS

CITY           SKY/WX    TMP DP  RH WIND       PRES   REMARKS
ALBUQUERQUE    PTSUNNY   37  23  56 E18G26    30.07R WCI  27
EL PASO        MOSUNNY   47  30  51 SE5       30.07R
$$


........................KEY........................
SKY/WX - SKY CONDITION/WEATHER
TMP    - TEMPERATURE IN FAHRENHEIT
DP     - DEW POINT IN FAHRENHEIT
RH     - RELATIVE HUMIDITY IN PERCENT
WIND   - DIRECTION AND SPEED IN MILES PER HOUR (MPH)
VRB    - VARIABLE WIND DIRECTION
PRES   - MEAN SEA LEVEL PRESSURE IN INCHES OF MERCURY
         F - FALLING PRESSURE   R - RISING PRESSURE
         S - STEADY PRESSURE
VSB    - VISIBILITY IN MILES
HX     - HEAT INDEX IN FAHRENHEIT
WCI    - WIND CHILL INDEX IN FAHRENHEIT
TC     - TEMPERATURE IN CELSIUS WHICH IS ALSO KNOWN AS
         TEMPERATURE IN CENTIGRADE
AFB    - AIR FORCE BASE
         LUKE AFB IS LUKE AIR FORCE BASE
         DAVIS-MONTHAN IS DAVIS-MONTHAN AIR FORCE BASE
NAS    - NAVAL AIR STATION
         EL CENTRO NAS IS EL CENTRO NAVAL AIR STATION
N/A    - NOT AVAILABLE


USA.gov is the U.S. government's official web portal to all federal, state and local government web resources and services.